Regional Weather Roundup
Issued by NWS Cleveland, OH

Home | Current Version | Previous Version | Graphics & Text | Print | Product List | Glossary On
Versions: 1 2 3 4 5 6 7 8 9 10 11 12 13 14 15 16 17 18 19 20 21 22 23 24 25 26 27 28 29 30 31 32 33 34 35 36 37 38 39 40 41 42 43 44 45 46 47 48 49 50
000
ASUS41 KCLE 181802
RWRCLE
OHIO REGIONAL WEATHER ROUNDUP
NATIONAL WEATHER SERVICE CLEVELAND, OH
200 PM EDT FRI AUG 18 2017

NOTE: "FAIR" INDICATES FEW OR NO CLOUDS BELOW 12,000 FEET WITH NO
SIGNIFICANT WEATHER AND/OR OBSTRUCTIONS TO VISIBILITY.

OHZ001>008-015>018-024>027-034-035-043-044-181900-
   NORTHWEST OHIO

CITY           SKY/WX    TMP DP  RH WIND       PRES   REMARKS
DEFIANCE       CLOUDY    78  61  55 W9G17     29.85S
FINDLAY        PTSUNNY   80  62  54 W17G25    29.85S
TOLEDO EXPRESS CLOUDY    75  64  68 W13       29.83S
TOLEDO EXEC    PTSUNNY   79  64  60 W13       29.83S
LIMA           MOSUNNY   79  65  62 W18G25    29.88S
$$

OHZ009>014-019>023-028>033-038-089-181900-
   NORTHEAST OHIO

CITY           SKY/WX    TMP DP  RH WIND       PRES   REMARKS
CLE-HOPKINS    CLOUDY    83  63  50 W17       29.83S
CLE-LAKEFRONT  PTSUNNY   79  68  69 W16       29.80S
CUY CO. ARPT   NOT AVBL
LORAIN-ELYRIA  PTSUNNY   78  61  55 W15G24    29.83S
ASHTABULA      PTSUNNY   79  65  62 W12       29.81S
AKRON-CANTON   NOT AVBL
WOOSTER        PTSUNNY   81  63  54 SW14G20   29.85S
MANSFIELD      PTSUNNY   78  62  57 W14G20    29.87S
YOUNGSTOWN     NOT AVBL
$$

OHZ042-051>053-060>062-070>072-077>081-181900-
  SOUTHWEST OHIO

CITY           SKY/WX    TMP DP  RH WIND       PRES   REMARKS
CINC-COVINGTON PTSUNNY   83  67  58 W10       29.93S
CINC-LUNKEN    MOSUNNY   83  64  52 W12G22    29.91S
HAMILTON       MOSUNNY   83  64  52 W13G23    29.92R
DAYTON         PTSUNNY   80  62  54 W14G24    29.91S
WRIGHT-PAT AFB PTSUNNY   82  65  56 SW15G22   29.89S
DAYTON GENERAL MOSUNNY   81  63  54 W12G22    29.91S
WILMINGTON     MOSUNNY   82  65  56 W18G25    29.91S
$$

OHZ036-037-039>041-045>050-054>059-063>069-073>076-082>088-181900-
  CENTRAL AND SOUTHEAST OHIO

CITY           SKY/WX    TMP DP  RH WIND       PRES   REMARKS
COLUMBUS       PTSUNNY   82  63  52 W13G25    29.87S
OSU AIRPORT    MOSUNNY   82  67  60 W17       29.88R
BOLTON FIELD   PTSUNNY   81  66  61 W13       29.89S
RICKENBACK AFB MOSUNNY   82  64  54 W15       29.88S
NEWARK         PTSUNNY   82  63  52 W12       29.86S
MARION         PTSUNNY   81  62  52 W18G26    29.87S
LANCASTER      SUNNY     82  65  56 W9G22     29.89R
ZANESVILLE     MOSUNNY   83  64  52 W12G21    29.87S
NEW PHILLY     NOT AVBL
$$




USA.gov is the U.S. government's official web portal to all federal, state and local government web resources and services.